Terug naar catalogus

STARLINK-11573

ActiefCommunicatieVLEO
NORAD 62989·PAYLOAD·🇺🇸 United States

Gelanceerd Feb 11, 2025 vanaf Cape Canaveral Space Force Station

Loading…

Volgende Passages (komende 24 uur)

TLE

VersSource: CelesTrak SupGP

Epoch: Sep 15, 2026, 02:00 UTC

1 62989C 25031J   26258.08381944  .00056419  00000+0  43828-3 0  2585
2 62989  43.0002 300.0273 0001635 246.1082 243.1655 15.70806548    19

Volg STARLINK-11573 in realtime met AllMySat

Download on the App Store